SCP
0 0 0 0 0 0 0 0 0 0 0 0 0 0 0 0 0 0 0 0 0 0 0 0 0 0 0 0 0 0 0 0 0 -0 0 0 0 0 0 0 0 0 0 0
0 0 0 0 0 0 0 0 0 0 0 0 0 0 0 0 0 0 0 0 0 0 0 0 0 0 0 0 0 0 0 0 0 -0 0 0 0 0 0 0 0 0 0 0
0 0 0 0 0 0 0 0 0 0 0 0 0 0 0 0 0 0 0 0 0 0 0 0 0 0 0 0 0 0 0 0 0 0 0 0 0 -0 0 0 0 0 0 0
0 0 0 0 0 0 0 0 0 0 0 0 0 0 0 0 0 0 0 0 0 0 0 0 0 0 0 0 0 0 0 0 0 -0 -0 0 0 -0 -0 0 0 0 0 0
0 0 0 0 0 0 0 0 0 0 0 0 0 0 0 0 0 0 0 0 0 0 0 0 0 0 0 0 0 0 0 0 0 -0 -0 0 -0 -0 -0 0 0 0 0 0
0 0 0 0 0 0 0 0 0 0 0 0 0 0 0 0 0 0 0 0 0 0 0 0 0 0 0 0 0 0 0 0 0 -0 -0 -0 -0 0 -0 -0 -0 0 0 0
0 0 0 0 0 0 0 0 0 0 0 0 0 0 0 0 0 0 0 0 0 0 0 0 0 0 0 0 0 0 0 0 0 0 -0 -0 -0 0 0 -0 0 0 0 0
0 0 0 0 0 0 0 0 0 0 0 0 0 0 0 0 0 0 0 0 0 0 0 0 0 0 0 0 0 0 0 0 0 0 -0 -0 -0 -0 0 -0 -0 0 0 0
0 0 0 0 0 0 0 0 0 0 0 0 0 0 0 0 0 0 0 0 0 0 0 0 0 0 0 0 0 0 0 0 0 0 -0 -0 -0 0 0 0 -0 0 0 -0
0 0 0 0 0 0 0 0 0 0 0 0 0 0 0 0 0 0 0 0 0 0 0 0 0 0 0 0 0 0 0 0 0 0 0 -0 0 0 0 -0 -0 0 0 -0
0 0 0 0 0 0 0 0 0 0 0 0 0 0 0 0 0 0 0 0 0 0 0 0 0 0 0 0 0 0 0 0 0 0 0 0 0 0 -0 -0 0 0 0 0
0 0 0 0 0 0 0 0 0 0 0 0 0 0 0 0 0 0 0 0 0 0 0 0 0 0 0 0 0 0 0 0 0 0 0 0 0 0 0 0 0 0 0 0
0 0 0 0 0 0 0 0 0 0 0 0 0 0 0 0 0 0 0 0 0 0 0 0 0 0 0 0 0 0 0 0 0 0 0 0 0 0 0 0 0 0 0 0
0 0 0 0 0 0 0 0 0 0 0 0 0 0 0 0 0 0 0 0 0 0 0 0 0 0 0 0 0 0 0 0 0 0 0 0 0 0 0 0 0 0 0 0
0 0 0 0 0 0 0 0 0 0 0 0 0 0 0 0 0 0 0 0 0 0 0 0 0 0 0 0 0 0 0 0 0 0 0 0 0 0 0 0 0 0 0 0
0 0 0 0 0 0 0 0 0 0 0 0 0 0 0 0 0 0 0 0 0 0 0 0 0 0 0 0 0 0 -0 0 0 0 -0 0 0 0 0 -0 0 0 0 0
0 0 0 0 0 0 0 0 0 0 0 0 0 0 0 0 0 0 0 0 0 0 0 0 0 0 0 0 0 0 -0 -0 0 0 0 0 0 0 0 0 0 0 0 0
0 0 0 0 0 0 0 0 0 0 0 0 0 0 0 0 0 0 0 0 0 0 0 0 0 0 0 0 0 -0 0 0 0 0 0 0 0 0 0 0 0 0 0 0
0 0 0 0 0 0 0 0 0 0 0 0 0 0 0 0 0 0 0 0 0 0 0 0 0 0 0 0 0 0 0 0 0 0 0 0 0 0 0 0 0 0 0 0
0 0 0 0 0 0 0 0 0 0 0 0 0 0 0 0 0 0 0 0 0 0 0 0 0 0 0 0 0 0 0 0 0 0 0 0 0 0 0 0 0 0 0 0
0 0 0 0 0 0 0 0 0 0 0 0 0 0 0 0 0 0 0 0 0 0 0 0 0 0 0 0 0 0 0 0 0 0 0 0 0 0 0 0 0 0 0 0
0 0 0 0 0 0 0 0 0 0 0 0 0 0 0 0 0 0 0 0 0 0 0 0 0 -0 -0 0 0 0 0 0 0 0 0 0 0 0 0 0 0 0 0 0
0 0 0 0 0 0 0 0 0 0 0 0 0 0 0 0 0 0 0 0 0 0 0 0 0 0 0 0 0 0 0 0 0 0 0 0 0 0 0 0 0 0 0 0
0 0 0 0 0 0 0 0 0 0 0 0 0 0 0 0 0 0 0 0 0 0 0 0 0 -0 0 0 0 0 0 0 0 0 0 0 0 0 0 0 0 0 0 0
0 0 0 0 0 0 0 0 0 0 0 0 0 0 0 0 0 0 0 0 0 0 0 0 0 0 0 0 0 0 0 0 0 0 0 0 0 0 0 0 0 0 0 0
0 0 0 0 0 0 0 0 0 0 0 0 0 0 0 0 0 0 0 0 0 0 0 0 0 0 0 0 0 0 0 0 0 0 0 0 0 0 0 0 0 0 0 0
0 0 0 0 0 0 0 0 0 0 0 0 0 0 0 0 0 0 0 0 0 0 0 0 0 0 0 0 0 0 0 0 0 0 0 0 0 0 0 0 0 0 0 0
Wind_Speed_500mb
68 57 51 46 41 33 33 16 3 10 18 4 5 4 7 4 11 7 7 11 2 6 6 6 7 9 11 23 18 9 6 6 10 6 1 11 7 5 9 6 4 4 4 7
74 68 59 56 52 49 49 18 6 16 21 4 5 3 4 6 6 5 7 7 10 4 3 6 12 11 8 17 10 7 6 4 9 3 1 0 6 8 10 13 4 10 5 8
79 80 72 67 59 54 50 17 6 5 13 8 9 9 8 7 11 7 10 6 6 5 6 5 8 11 10 15 4 3 6 5 8 6 6 4 7 6 15 10 6 2 6 15
88 87 85 77 62 63 58 20 10 15 9 14 13 14 14 11 6 12 21 7 10 9 4 4 6 10 15 6 8 9 3 8 7 16 19 10 9 9 17 7 17 10 4 5
69 90 86 86 70 73 62 21 15 14 10 10 21 13 11 15 12 15 9 9 11 13 8 12 9 11 5 7 3 8 5 6 11 11 9 9 15 14 20 9 15 7 2 8
84 85 79 87 81 88 43 47 26 16 17 13 11 10 13 16 20 23 9 21 9 10 6 10 15 17 23 23 10 4 5 8 7 4 8 11 5 3 9 6 8 7 9 6
83 92 80 91 101 100 61 71 37 16 6 10 10 10 22 13 26 9 12 13 11 7 1 20 22 20 20 16 16 16 3 7 5 8 6 2 7 10 9 5 2 5 1 4
90 89 106 99 108 95 93 64 55 20 6 18 8 15 14 16 11 7 10 12 12 8 10 6 8 7 10 6 9 14 16 5 6 5 6 4 2 8 10 5 1 6 4 7
95 91 110 108 114 95 100 75 67 27 20 20 19 20 29 9 7 2 9 12 13 9 8 6 2 6 5 4 8 6 15 12 4 5 6 6 3 11 19 9 3 25 11 8
102 108 114 89 85 95 98 90 71 45 13 8 33 12 19 23 15 5 10 12 10 15 5 4 6 6 2 2 5 8 2 5 12 10 8 10 8 17 16 2 4 25 11 3
98 112 109 87 76 101 111 93 80 61 24 19 36 23 22 29 22 8 21 10 3 2 6 7 6 4 8 2 6 9 11 10 8 3 5 12 19 13 8 5 7 12 9 5
96 98 98 104 83 91 117 83 83 69 33 17 38 34 27 33 36 21 38 5 13 19 7 2 6 2 2 4 5 4 5 9 6 13 9 6 33 10 18 10 12 11 9 6
101 104 100 97 106 106 116 89 87 73 45 12 21 27 35 33 30 33 16 13 17 17 14 12 4 5 6 6 10 3 10 8 4 8 8 25 27 22 21 23 19 13 9 6
97 104 108 121 107 112 118 107 90 78 31 12 13 29 31 38 35 35 23 15 26 24 18 8 5 6 13 5 4 6 6 17 10 11 20 13 33 44 31 29 24 19 15 13
86 92 90 112 92 128 117 107 86 93 42 15 12 23 29 29 34 31 27 21 25 19 11 6 6 7 4 4 4 9 25 15 11 13 19 11 9 40 47 41 36 29 24 19
83 87 83 106 119 130 110 25 71 98 62 12 6 12 17 26 27 26 31 31 23 13 12 8 8 10 10 4 7 22 50 54 53 12 17 30 13 22 47 42 37 33 29 23
83 83 85 115 131 143 109 34 31 111 71 11 9 8 10 31 33 27 27 27 12 10 10 7 11 8 13 4 11 16 34 43 52 54 26 25 30 22 47 44 40 37 33 28
84 82 110 126 139 110 61 27 29 117 63 15 8 6 11 32 14 11 15 13 11 8 7 7 10 12 10 13 29 60 52 38 44 57 52 31 31 33 48 47 43 41 36 29
77 88 114 120 91 54 37 40 84 92 27 27 12 16 11 33 11 14 12 12 4 8 9 12 18 8 14 25 49 51 53 44 37 55 57 52 36 49 43 52 49 44 37 31
90 105 57 29 45 77 75 36 18 22 15 8 7 23 8 28 12 11 14 10 6 5 10 18 10 11 55 61 60 49 39 50 49 47 63 69 62 58 62 57 44 39 35 33
56 25 15 76 100 63 14 15 13 14 7 19 19 20 19 26 8 6 13 6 6 5 7 9 7 9 16 67 98 113 87 54 64 65 56 64 70 77 63 54 45 44 42 37
69 57 106 70 18 11 11 8 8 9 13 26 24 25 24 23 17 11 15 7 4 11 20 4 8 11 60 44 40 48 82 95 66 70 60 52 55 59 63 54 46 43 38 38
82 39 13 20 12 11 16 21 9 11 20 26 31 16 24 17 12 12 6 8 10 22 6 10 11 34 32 27 31 44 40 65 82 64 67 52 46 48 55 53 49 43 39 35
16 13 17 11 10 14 16 22 12 18 43 65 58 19 13 13 9 7 10 3 7 4 8 14 7 46 47 32 40 33 45 52 77 73 69 58 47 46 47 46 43 41 39 36
14 15 14 15 11 11 31 46 45 38 84 82 37 17 12 5 8 3 9 4 13 16 10 8 24 27 37 35 34 38 43 49 75 72 72 62 53 47 43 44 43 41 39 37
16 13 10 23 12 4 23 44 38 69 84 71 28 9 9 8 9 10 19 13 17 9 8 16 17 22 23 22 24 41 42 48 70 69 68 60 55 45 45 43 41 39 37 36
14 6 18 24 29 19 28 48 49 84 86 25 8 14 17 10 8 10 12 12 8 11 16 25 22 17 18 17 22 37 43 52 63 68 67 58 47 47 44 41 38 38 37 36
Wind_Direction_500mb
227 224 224 213 209 198 184 181 226 179 163 55 86 158 200 226 151 175 251 155 206 58 0 333 306 311 330 17 15 332 97 318 281 247 315 309 294 304 271 248 213 245 307 283
229 224 227 215 208 201 179 178 174 172 175 193 193 245 229 253 139 210 207 186 152 160 128 338 299 269 4 32 344 23 28 263 295 261 315 203 46 351 324 290 244 212 268 281
231 225 223 211 209 200 184 177 133 156 200 185 164 165 199 193 196 249 253 269 164 153 41 332 278 297 313 332 35 41 113 262 266 285 334 276 307 341 350 302 276 238 247 321
233 231 222 209 206 196 183 194 202 174 173 229 216 183 167 154 165 235 192 237 212 160 135 32 268 291 318 306 112 314 13 274 267 277 269 224 270 358 353 310 302 249 81 52
237 233 220 213 206 191 186 179 166 170 171 144 179 191 215 178 148 180 232 214 168 187 200 176 226 258 314 279 356 353 32 279 313 274 197 228 273 6 341 323 340 55 135 71
230 226 231 218 200 188 191 203 185 163 163 162 166 214 187 198 151 214 246 199 201 203 243 295 294 287 282 284 313 323 309 330 303 290 185 244 228 14 324 336 10 338 26 358
229 232 235 219 203 199 199 194 178 165 173 183 220 187 182 169 196 142 211 180 171 159 124 312 281 262 266 263 259 234 259 303 266 282 327 275 237 167 239 148 44 23 25 11
222 232 232 221 210 206 206 200 194 181 146 177 188 179 157 160 164 165 183 190 166 165 49 31 347 329 3 283 247 194 204 273 293 298 301 254 279 189 179 152 57 193 208 242
219 226 228 220 213 202 206 205 199 204 143 216 189 167 172 143 149 138 209 191 189 142 91 80 226 243 212 316 342 250 192 228 268 318 285 239 168 146 155 154 192 188 214 342
227 227 222 222 212 215 206 200 203 213 209 175 179 170 176 169 171 124 145 181 144 158 110 132 207 253 224 270 175 203 176 198 222 233 261 275 131 142 161 130 229 145 156 53
223 221 220 213 218 216 204 203 199 209 219 199 202 185 158 165 175 160 150 113 172 90 114 145 211 170 218 91 224 187 181 160 207 140 230 289 152 130 201 136 117 145 146 161
217 224 226 219 221 225 199 195 200 203 206 203 211 205 198 197 192 172 171 176 153 174 104 105 97 226 124 182 269 349 269 198 214 186 217 158 187 219 202 201 186 197 188 181
220 219 225 220 221 210 203 194 196 196 202 208 205 208 206 202 195 195 169 186 171 177 141 132 138 187 135 203 243 215 234 178 227 32 250 219 216 218 223 203 206 199 190 180
220 223 225 218 214 211 199 198 198 188 179 213 201 207 204 205 201 201 201 177 173 158 153 126 146 163 190 237 225 204 198 143 193 261 272 264 235 221 214 203 204 202 204 213
215 220 225 210 212 206 195 195 193 188 180 161 151 191 201 200 199 200 198 187 171 159 143 130 200 161 135 209 2 236 184 191 176 221 221 204 209 222 206 202 202 204 208 213
206 210 218 220 209 185 177 162 192 187 189 154 127 167 190 188 180 180 173 181 178 174 159 163 182 187 176 195 241 247 219 220 221 240 226 217 223 191 200 202 204 212 215 224
213 208 215 206 186 185 176 184 203 188 188 175 98 110 159 162 167 170 176 177 183 167 172 167 159 184 194 223 243 235 229 237 229 230 232 219 215 200 199 204 210 215 220 227
209 210 211 195 188 179 185 182 170 179 173 156 122 101 168 168 148 139 158 152 160 188 172 164 191 155 209 250 247 247 243 237 231 225 219 227 222 207 200 206 211 217 225 232
206 210 196 170 162 165 162 135 156 164 163 166 147 150 180 168 136 132 139 156 127 216 213 209 171 205 221 229 236 243 236 220 224 221 216 220 222 211 208 213 218 222 226 233
199 175 143 147 158 161 131 124 126 167 222 176 118 128 138 159 143 146 133 178 181 188 222 169 223 251 245 241 247 251 245 233 219 200 210 215 218 213 213 220 225 228 226 238
166 140 95 138 135 134 102 136 152 148 191 200 157 146 133 162 138 142 195 175 159 180 217 169 243 258 244 247 243 243 236 229 223 225 230 228 227 217 215 217 220 222 229 241
167 148 131 130 132 118 119 140 132 180 208 168 146 145 127 143 148 120 178 152 77 227 143 155 260 246 250 239 240 242 234 228 226 221 222 227 231 230 226 227 228 233 238 246
131 124 141 142 152 134 163 173 193 187 157 154 160 129 135 130 150 107 138 139 208 130 180 228 228 254 266 253 239 237 236 223 219 219 215 218 221 220 218 223 227 230 229 226
131 146 143 160 165 212 206 185 127 132 138 139 148 115 126 127 129 150 137 187 112 213 232 233 234 234 252 257 246 234 225 219 212 215 210 210 208 207 205 213 220 217 225 237
125 141 166 187 160 106 145 145 127 140 148 142 134 94 115 117 117 139 114 77 239 212 229 227 238 246 254 251 242 230 223 216 204 208 204 201 199 200 209 204 213 225 229 227
137 165 134 136 108 109 141 143 135 147 148 145 147 130 140 181 146 150 214 170 218 216 221 229 249 259 273 261 241 223 224 215 203 203 201 200 200 207 205 212 217 220 220 221
144 156 167 158 101 135 144 150 149 156 150 161 143 151 189 115 183 215 193 208 204 196 200 225 251 286 279 261 227 215 211 203 199 198 197 197 205 205 208 212 212 213 212 215
Wind_Speed_850mb
68 57 51 46 41 33 33 16 3 10 18 4 5 4 7 4 11 7 7 11 2 6 6 6 7 9 11 23 18 9 6 6 10 6 1 11 7 5 9 6 4 4 4 7
74 68 59 56 52 49 49 18 6 16 21 4 5 3 4 6 6 5 7 7 10 4 3 6 12 11 8 17 10 7 6 4 9 3 1 0 6 8 10 13 4 10 5 8
79 80 72 67 59 54 50 17 6 5 13 8 9 9 8 7 11 7 10 6 6 5 6 5 8 11 10 15 4 3 6 5 8 6 6 4 7 6 15 10 6 2 6 15
88 87 85 77 62 63 58 20 10 15 9 14 13 14 14 11 6 12 21 7 10 9 4 4 6 10 15 6 8 9 3 8 7 16 19 10 9 9 17 7 17 10 4 5
69 90 86 86 70 73 62 21 15 14 10 10 21 13 11 15 12 15 9 9 11 13 8 12 9 11 5 7 3 8 5 6 11 11 9 9 15 14 20 9 15 7 2 8
84 85 79 87 81 88 43 47 26 16 17 13 11 10 13 16 20 23 9 21 9 10 6 10 15 17 23 23 10 4 5 8 7 4 8 11 5 3 9 6 8 7 9 6
83 92 80 91 101 100 61 71 37 16 6 10 10 10 22 13 26 9 12 13 11 7 1 20 22 20 20 16 16 16 3 7 5 8 6 2 7 10 9 5 2 5 1 4
90 89 106 99 108 95 93 64 55 20 6 18 8 15 14 16 11 7 10 12 12 8 10 6 8 7 10 6 9 14 16 5 6 5 6 4 2 8 10 5 1 6 4 7
95 91 110 108 114 95 100 75 67 27 20 20 19 20 29 9 7 2 9 12 13 9 8 6 2 6 5 4 8 6 15 12 4 5 6 6 3 11 19 9 3 25 11 8
102 108 114 89 85 95 98 90 71 45 13 8 33 12 19 23 15 5 10 12 10 15 5 4 6 6 2 2 5 8 2 5 12 10 8 10 8 17 16 2 4 25 11 3
98 112 109 87 76 101 111 93 80 61 24 19 36 23 22 29 22 8 21 10 3 2 6 7 6 4 8 2 6 9 11 10 8 3 5 12 19 13 8 5 7 12 9 5
96 98 98 104 83 91 117 83 83 69 33 17 38 34 27 33 36 21 38 5 13 19 7 2 6 2 2 4 5 4 5 9 6 13 9 6 33 10 18 10 12 11 9 6
101 104 100 97 106 106 116 89 87 73 45 12 21 27 35 33 30 33 16 13 17 17 14 12 4 5 6 6 10 3 10 8 4 8 8 25 27 22 21 23 19 13 9 6
97 104 108 121 107 112 118 107 90 78 31 12 13 29 31 38 35 35 23 15 26 24 18 8 5 6 13 5 4 6 6 17 10 11 20 13 33 44 31 29 24 19 15 13
86 92 90 112 92 128 117 107 86 93 42 15 12 23 29 29 34 31 27 21 25 19 11 6 6 7 4 4 4 9 25 15 11 13 19 11 9 40 47 41 36 29 24 19
83 87 83 106 119 130 110 25 71 98 62 12 6 12 17 26 27 26 31 31 23 13 12 8 8 10 10 4 7 22 50 54 53 12 17 30 13 22 47 42 37 33 29 23
83 83 85 115 131 143 109 34 31 111 71 11 9 8 10 31 33 27 27 27 12 10 10 7 11 8 13 4 11 16 34 43 52 54 26 25 30 22 47 44 40 37 33 28
84 82 110 126 139 110 61 27 29 117 63 15 8 6 11 32 14 11 15 13 11 8 7 7 10 12 10 13 29 60 52 38 44 57 52 31 31 33 48 47 43 41 36 29
77 88 114 120 91 54 37 40 84 92 27 27 12 16 11 33 11 14 12 12 4 8 9 12 18 8 14 25 49 51 53 44 37 55 57 52 36 49 43 52 49 44 37 31
90 105 57 29 45 77 75 36 18 22 15 8 7 23 8 28 12 11 14 10 6 5 10 18 10 11 55 61 60 49 39 50 49 47 63 69 62 58 62 57 44 39 35 33
56 25 15 76 100 63 14 15 13 14 7 19 19 20 19 26 8 6 13 6 6 5 7 9 7 9 16 67 98 113 87 54 64 65 56 64 70 77 63 54 45 44 42 37
69 57 106 70 18 11 11 8 8 9 13 26 24 25 24 23 17 11 15 7 4 11 20 4 8 11 60 44 40 48 82 95 66 70 60 52 55 59 63 54 46 43 38 38
82 39 13 20 12 11 16 21 9 11 20 26 31 16 24 17 12 12 6 8 10 22 6 10 11 34 32 27 31 44 40 65 82 64 67 52 46 48 55 53 49 43 39 35
16 13 17 11 10 14 16 22 12 18 43 65 58 19 13 13 9 7 10 3 7 4 8 14 7 46 47 32 40 33 45 52 77 73 69 58 47 46 47 46 43 41 39 36
14 15 14 15 11 11 31 46 45 38 84 82 37 17 12 5 8 3 9 4 13 16 10 8 24 27 37 35 34 38 43 49 75 72 72 62 53 47 43 44 43 41 39 37
16 13 10 23 12 4 23 44 38 69 84 71 28 9 9 8 9 10 19 13 17 9 8 16 17 22 23 22 24 41 42 48 70 69 68 60 55 45 45 43 41 39 37 36
14 6 18 24 29 19 28 48 49 84 86 25 8 14 17 10 8 10 12 12 8 11 16 25 22 17 18 17 22 37 43 52 63 68 67 58 47 47 44 41 38 38 37 36
Wind_Direction_850mb
227 224 224 213 209 198 184 181 226 179 163 55 86 158 200 226 151 175 251 155 206 58 0 333 306 311 330 17 15 332 97 318 281 247 315 309 294 304 271 248 213 245 307 283
229 224 227 215 208 201 179 178 174 172 175 193 193 245 229 253 139 210 207 186 152 160 128 338 299 269 4 32 344 23 28 263 295 261 315 203 46 351 324 290 244 212 268 281
231 225 223 211 209 200 184 177 133 156 200 185 164 165 199 193 196 249 253 269 164 153 41 332 278 297 313 332 35 41 113 262 266 285 334 276 307 341 350 302 276 238 247 321
233 231 222 209 206 196 183 194 202 174 173 229 216 183 167 154 165 235 192 237 212 160 135 32 268 291 318 306 112 314 13 274 267 277 269 224 270 358 353 310 302 249 81 52
237 233 220 213 206 191 186 179 166 170 171 144 179 191 215 178 148 180 232 214 168 187 200 176 226 258 314 279 356 353 32 279 313 274 197 228 273 6 341 323 340 55 135 71
230 226 231 218 200 188 191 203 185 163 163 162 166 214 187 198 151 214 246 199 201 203 243 295 294 287 282 284 313 323 309 330 303 290 185 244 228 14 324 336 10 338 26 358
229 232 235 219 203 199 199 194 178 165 173 183 220 187 182 169 196 142 211 180 171 159 124 312 281 262 266 263 259 234 259 303 266 282 327 275 237 167 239 148 44 23 25 11
222 232 232 221 210 206 206 200 194 181 146 177 188 179 157 160 164 165 183 190 166 165 49 31 347 329 3 283 247 194 204 273 293 298 301 254 279 189 179 152 57 193 208 242
219 226 228 220 213 202 206 205 199 204 143 216 189 167 172 143 149 138 209 191 189 142 91 80 226 243 212 316 342 250 192 228 268 318 285 239 168 146 155 154 192 188 214 342
227 227 222 222 212 215 206 200 203 213 209 175 179 170 176 169 171 124 145 181 144 158 110 132 207 253 224 270 175 203 176 198 222 233 261 275 131 142 161 130 229 145 156 53
223 221 220 213 218 216 204 203 199 209 219 199 202 185 158 165 175 160 150 113 172 90 114 145 211 170 218 91 224 187 181 160 207 140 230 289 152 130 201 136 117 145 146 161
217 224 226 219 221 225 199 195 200 203 206 203 211 205 198 197 192 172 171 176 153 174 104 105 97 226 124 182 269 349 269 198 214 186 217 158 187 219 202 201 186 197 188 181
220 219 225 220 221 210 203 194 196 196 202 208 205 208 206 202 195 195 169 186 171 177 141 132 138 187 135 203 243 215 234 178 227 32 250 219 216 218 223 203 206 199 190 180
220 223 225 218 214 211 199 198 198 188 179 213 201 207 204 205 201 201 201 177 173 158 153 126 146 163 190 237 225 204 198 143 193 261 272 264 235 221 214 203 204 202 204 213
215 220 225 210 212 206 195 195 193 188 180 161 151 191 201 200 199 200 198 187 171 159 143 130 200 161 135 209 2 236 184 191 176 221 221 204 209 222 206 202 202 204 208 213
206 210 218 220 209 185 177 162 192 187 189 154 127 167 190 188 180 180 173 181 178 174 159 163 182 187 176 195 241 247 219 220 221 240 226 217 223 191 200 202 204 212 215 224
213 208 215 206 186 185 176 184 203 188 188 175 98 110 159 162 167 170 176 177 183 167 172 167 159 184 194 223 243 235 229 237 229 230 232 219 215 200 199 204 210 215 220 227
209 210 211 195 188 179 185 182 170 179 173 156 122 101 168 168 148 139 158 152 160 188 172 164 191 155 209 250 247 247 243 237 231 225 219 227 222 207 200 206 211 217 225 232
206 210 196 170 162 165 162 135 156 164 163 166 147 150 180 168 136 132 139 156 127 216 213 209 171 205 221 229 236 243 236 220 224 221 216 220 222 211 208 213 218 222 226 233
199 175 143 147 158 161 131 124 126 167 222 176 118 128 138 159 143 146 133 178 181 188 222 169 223 251 245 241 247 251 245 233 219 200 210 215 218 213 213 220 225 228 226 238
166 140 95 138 135 134 102 136 152 148 191 200 157 146 133 162 138 142 195 175 159 180 217 169 243 258 244 247 243 243 236 229 223 225 230 228 227 217 215 217 220 222 229 241
167 148 131 130 132 118 119 140 132 180 208 168 146 145 127 143 148 120 178 152 77 227 143 155 260 246 250 239 240 242 234 228 226 221 222 227 231 230 226 227 228 233 238 246
131 124 141 142 152 134 163 173 193 187 157 154 160 129 135 130 150 107 138 139 208 130 180 228 228 254 266 253 239 237 236 223 219 219 215 218 221 220 218 223 227 230 229 226
131 146 143 160 165 212 206 185 127 132 138 139 148 115 126 127 129 150 137 187 112 213 232 233 234 234 252 257 246 234 225 219 212 215 210 210 208 207 205 213 220 217 225 237
125 141 166 187 160 106 145 145 127 140 148 142 134 94 115 117 117 139 114 77 239 212 229 227 238 246 254 251 242 230 223 216 204 208 204 201 199 200 209 204 213 225 229 227
137 165 134 136 108 109 141 143 135 147 148 145 147 130 140 181 146 150 214 170 218 216 221 229 249 259 273 261 241 223 224 215 203 203 201 200 200 207 205 212 217 220 220 221
144 156 167 158 101 135 144 150 149 156 150 161 143 151 189 115 183 215 193 208 204 196 200 225 251 286 279 261 227 215 211 203 199 198 197 197 205 205 208 212 212 213 212 215